Regional Weather Roundup
Issued by NWS

Home | Current Version | Previous Version | Graphics & Text | Print | Product List | Glossary On
Versions: 1 2 3 4 5 6 7 8 9 10 11 12 13 14 15 16 17 18 19 20 21 22 23 24 25 26 27 28 29 30 31 32 33 34 35 36 37 38 39 40 41 42 43 44 45 46 47 48 49 50
000
ASUS43 KFSD 210510
RWRSD

WEATHER ROUNDUP FOR SOUTH DAKOTA
NATIONAL WEATHER SERVICE SIOUX FALLS SD
1200 AM CDT MON AUG 21 2017

NOTE: "FAIR" INDICATES FEW OR NO CLOUDS BELOW 12,000 FEET WITH NO
SIGNIFICANT WEATHER AND/OR OBSTRUCTIONS TO VISIBILITY.


SDZ001>005-009-010-012>017-210600-
NORTHWEST AND NORTH CENTRAL SOUTH DAKOTA

CITY           SKY/WX    TMP DP  RH WIND       PRES   REMARKS
BUFFALO          N/A     64  48  56 SE14      29.95S
FAITH            N/A     62  49  62 E10       30.04R
MOBRIDGE       CLEAR     60  51  72 E10       30.01S
$$

SDZ012>016-024>037-041>051-057-063-072>074-210600-
SOUTHWEST AND SOUTH CENTRAL SOUTH DAKOTA

CITY           SKY/WX    TMP DP  RH WIND       PRES   REMARKS
RAPID CTY ARPT CLEAR     67  54  63 SE12      30.01F
PIERRE         PTCLDY    60  53  77 E7        30.00F
CUSTER         CLOUDY    61  50  67 SE8       30.14F
ELLSWORTH AFB  PTCLDY    68  55  62 SE9       30.01S
PHILIP         CLEAR     61  47  59 E8        30.00F
PINE RIDGE     PTCLDY    66  57  72 E14       30.03F
SPEARFISH      FAIR      72  52  49 CALM      30.00S
WINNER         FAIR      68  62  81 E8        30.01F
$$

SDZ004>011-016>023-039-040-210600-
NORTHEAST SOUTH DAKOTA

CITY           SKY/WX    TMP DP  RH WIND       PRES   REMARKS
ABERDEEN       CLOUDY    58  55  90 NE6       30.04S
WATERTOWN      CLOUDY    60  56  86 S6        30.05R
BROOKINGS      PTCLDY    62  59  90 NE5       30.04
SISSETON         N/A     59  58  96 CALM      30.03F
$$

SDZ017-020-022-023-036>040-048>070-210600-
SOUTHEAST SOUTH DAKOTA

CITY           SKY/WX    TMP DP  RH WIND       PRES   REMARKS
SIOUX FALLS    PTCLDY    68  64  87 E7        30.01F
HURON          CLEAR     61  57  87 NE6       30.02S
CHAMBERLAIN    CLOUDY    67  60  79 NE6       30.02S
MITCHELL       PTCLDY    65  60  84 NE5       30.01R
YANKTON        CLEAR     69  65  86 NE10      29.98F
$$

ABBREVIATIONS USED IN REMARKS
   TC - TEMPERATURE IN CELSIUS
  WCI - WIND CHILL INDEX
   HX - HEAT INDEX
  VSB - VISIBILITY





USA.gov is the U.S. government's official web portal to all federal, state and local government web resources and services.